Weather Roundup
Issued by NWS Chicago, IL

Home | Current Version | Previous Version | Text Only | Print | Product List | Glossary Off
Versions: 1 2 3 4 5 6 7 8 9 10 11 12 13 14 15 16 17 18 19 20 21 22 23 24 25 26 27 28 29 30 31 32 33 34 35 36 37 38 39 40 41 42 43 44 45 46 47 48 49 50

000
NZUS59 KLOT 300909
HRRLOT

CHICAGO AREA WEATHER ROUNDUP
NATIONAL WEATHER SERVICE CHICAGO/ROMEOVILLE IL
400 AM CDT SAT JUL 30 2016

NOTE: "FAIR" INDICATES FEW OR NO CLOUDS BELOW 12,000 FEET WITH NO
SIGNIFICANT WEATHER AND/OR OBSTRUCTIONS TO VISIBILITY.

* THESE STATIONS ARE NOT UNDER NWS QUALITY CONTROL. THEY ALSO MAY NOT
  REPORT WEATHER SUCH AS PRECIPITATION OR FOG.

ILZ005-006-012>014-019>023-301000-
NORTHEAST ILLINOIS

CITY           SKY/WX    TMP DP  RH WIND       PRES   REMARKS
OHARE          MOCLDY    71  66  84 NE9       29.92F
MIDWAY         CLOUDY    73  67  81 NE7       29.92S
AURORA         CLEAR     68  65  90 N6        29.93F
LANSING*       CLEAR     68  65  92 CALM      29.92S
JOLIET*        CLOUDY    71  69  94 N3        29.92S
WAUKEGAN       CLOUDY    68  64  87 NE10      29.95S
DUPAGE AIRPORT CLEAR     66  64  93 N6        29.93F
WHEELING       CLOUDY    71  65  81 NE9       29.95S
KANKAKEE*      FOG       67  66  97 CALM      29.92S VSB<1/4
MORRIS*        PTCLDY    67  66  96 CALM      29.91S FOG
LEWIS AIRPORT* CLOUDY    68  65  90 N5        29.92F
NORTHERLY ISL    N/A     72  67  84 NE6         N/A
$$

WIZ051-052-058>065-066-070>072-301000-
SOUTHEAST WISCONSIN

CITY           SKY/WX    TMP DP  RH WIND       PRES   REMARKS
MILWAUKEE      CLOUDY    68  63  84 E9        29.97S
KENOSHA*       CLOUDY    67  62  84 E8        29.97S
RACINE*        CLOUDY    68  63  84 E8        29.98F
BURLINGTON     CLEAR     64  63  96 CALM      29.97S
WAUKESHA       PTCLDY    63  57  82 NE5       30.00R
$$

INZ001>003-010>013-019-020-301000-
NORTHWEST INDIANA

CITY           SKY/WX    TMP DP  RH WIND       PRES   REMARKS
GARY*          PTCLDY    68  68 100 CALM      29.92S
MICHIGAN CITY* NOT AVBL
RENSSELAER*    NOT AVBL
VALPARAISO     CLOUDY    67  66  97 E3        29.93S
$$

LMZ740>746-301000-
SOUTHERN LAKE MICHIGAN

STATION/POSITION TIME  SKY/WX   TEMP WIND        PRES    VSBY
                                AIR  DIR/SP/G
                 (UTC)          (F)  (DEG/KT/KT) (MB)    (MI)
HARRISON CRIB    0800            73   60/  8/  9   N/A
BURNHAM HARBOR   0900            72   30/  6/  8   N/A
CALUMET HARBOR   0800            72   30/  3/  4 1012.7F
BURNS HARBOR     0805            68   80/  5/  8 1013.9S
MICHIGAN CITY    0800            69  100/  5/  6   N/A
$$

ABBREVIATIONS USED IN REMARKS
   TC - TEMPERATURE IN CELSIUS
  WCI - WIND CHILL INDEX
   HX - HEAT INDEX
  VSB - VISIBILITY
$$




USA.gov is the U.S. government's official web portal to all federal, state and local government web resources and services.